Time,TemperatureF,DewpointF,PressureIn,WindDirection,WindDirectionDegrees,WindSpeedMPH,WindSpeedGustMPH,Humidity,HourlyPrecipIn,Conditions,Clouds,dailyrainin,SoftwareType,DateUTC
2013-02-07 00:08:00,40.5,33.0,30.07,ESE,122,0.0,2.0,75,0.00,,,0.00,weatherlink.com 1.10,2013-02-07 06:08:00,
2013-02-07 00:23:00,40.1,33.0,30.07,ESE,122,0.0,2.0,76,0.00,,,0.00,weatherlink.com 1.10,2013-02-07 06:23:00,
2013-02-07 00:38:00,39.5,33.0,30.05,ESE,122,2.0,3.0,77,0.00,,,0.00,weatherlink.com 1.10,2013-02-07 06:38:00,
2013-02-07 00:53:00,39.6,33.0,30.04,ESE,119,2.0,4.0,78,0.00,,,0.00,weatherlink.com 1.10,2013-02-07 06:53:00,
2013-02-07 01:08:00,39.9,33.0,30.05,ESE,119,0.0,1.0,77,0.00,,,0.00,weatherlink.com 1.10,2013-02-07 07:08:00,
2013-02-07 01:23:00,39.2,33.0,30.05,ESE,119,0.0,0.0,78,0.00,,,0.00,weatherlink.com 1.10,2013-02-07 07:23:00,
2013-02-07 01:38:00,38.5,33.0,30.05,ESE,119,0.0,3.0,80,0.00,,,0.00,weatherlink.com 1.10,2013-02-07 07:38:00,
2013-02-07 01:53:00,37.6,33.0,30.06,ESE,119,0.0,2.0,82,0.00,,,0.00,weatherlink.com 1.10,2013-02-07 07:53:00,
2013-02-07 02:08:00,37.0,32.0,30.05,ESE,119,0.0,2.0,83,0.00,,,0.00,weatherlink.com 1.10,2013-02-07 08:08:00,
2013-02-07 02:23:00,36.5,32.0,30.04,ESE,119,0.0,0.0,84,0.00,,,0.00,weatherlink.com 1.10,2013-02-07 08:23:00,
2013-02-07 02:38:00,35.9,32.0,30.04,ESE,119,0.0,0.0,85,0.00,,,0.00,weatherlink.com 1.10,2013-02-07 08:38:00,
2013-02-07 02:53:00,35.7,32.0,30.03,ESE,119,0.0,0.0,85,0.00,,,0.00,weatherlink.com 1.10,2013-02-07 08:53:00,
2013-02-07 03:09:00,34.7,31.0,30.03,ESE,119,0.0,0.0,85,0.00,,,0.00,weatherlink.com 1.10,2013-02-07 09:09:00,
2013-02-07 03:23:00,34.0,31.0,30.03,ESE,119,0.0,0.0,87,0.00,,,0.00,weatherlink.com 1.10,2013-02-07 09:23:00,
2013-02-07 03:38:00,33.8,31.0,30.02,ESE,119,0.0,0.0,88,0.00,,,0.00,weatherlink.com 1.10,2013-02-07 09:38:00,
2013-02-07 03:53:00,33.9,31.0,30.02,ESE,119,0.0,0.0,90,0.00,,,0.00,weatherlink.com 1.10,2013-02-07 09:53:00,
2013-02-07 04:08:00,33.9,31.0,30.02,ESE,119,0.0,0.0,88,0.00,,,0.00,weatherlink.com 1.10,2013-02-07 10:08:00,
2013-02-07 04:23:00,33.4,31.0,30.01,ESE,119,0.0,0.0,89,0.00,,,0.00,weatherlink.com 1.10,2013-02-07 10:23:00,
2013-02-07 04:38:00,33.0,30.0,30.01,ESE,119,0.0,0.0,89,0.00,,,0.00,weatherlink.com 1.10,2013-02-07 10:38:00,
2013-02-07 04:53:00,32.7,30.0,30.00,ESE,119,0.0,0.0,90,0.00,,,0.00,weatherlink.com 1.10,2013-02-07 10:53:00,
2013-02-07 05:08:00,32.5,30.0,30.00,ESE,119,0.0,0.0,91,0.00,,,0.00,weatherlink.com 1.10,2013-02-07 11:08:00,
2013-02-07 05:23:00,32.3,30.0,30.00,ESE,119,0.0,1.0,90,0.00,,,0.00,weatherlink.com 1.10,2013-02-07 11:23:00,
2013-02-07 05:38:00,32.6,30.0,30.00,ESE,119,0.0,2.0,91,0.00,,,0.00,weatherlink.com 1.10,2013-02-07 11:38:00,
2013-02-07 05:53:00,32.6,30.0,30.00,ESE,119,1.0,2.0,91,0.00,,,0.00,weatherlink.com 1.10,2013-02-07 11:53:00,
2013-02-07 06:09:00,32.9,30.0,30.00,ESE,119,1.0,2.0,90,0.00,,,0.00,weatherlink.com 1.10,2013-02-07 12:09:00,
2013-02-07 06:24:00,32.5,30.0,29.99,ESE,119,0.0,0.0,91,0.00,,,0.00,weatherlink.com 1.10,2013-02-07 12:24:00,
2013-02-07 06:39:00,32.1,30.0,29.99,ESE,119,0.0,2.0,90,0.00,,,0.00,weatherlink.com 1.10,2013-02-07 12:39:00,
2013-02-07 06:54:00,32.2,30.0,30.00,ESE,119,1.0,1.0,92,0.00,,,0.00,weatherlink.com 1.10,2013-02-07 12:54:00,
2013-02-07 07:09:00,32.5,30.0,30.00,ESE,121,0.0,1.0,91,0.00,,,0.00,weatherlink.com 1.10,2013-02-07 13:09:00,
2013-02-07 07:24:00,33.5,31.0,29.98,ESE,121,0.0,2.0,91,0.00,,,0.00,weatherlink.com 1.10,2013-02-07 13:24:00,
2013-02-07 07:39:00,35.2,32.0,29.98,ESE,121,0.0,1.0,89,0.00,,,0.00,weatherlink.com 1.10,2013-02-07 13:39:00,
2013-02-07 07:54:00,37.0,33.0,29.98,ESE,121,0.0,0.0,86,0.00,,,0.00,weatherlink.com 1.10,2013-02-07 13:54:00,
2013-02-07 08:09:00,39.5,34.0,29.98,ESE,121,2.0,2.0,81,0.00,,,0.00,weatherlink.com 1.10,2013-02-07 14:09:00,
2013-02-07 08:24:00,40.1,34.0,29.97,ESE,118,3.0,4.0,80,0.00,,,0.00,weatherlink.com 1.10,2013-02-07 14:24:00,
2013-02-07 08:39:00,41.8,34.0,29.97,ESE,117,0.0,3.0,75,0.00,,,0.00,weatherlink.com 1.10,2013-02-07 14:39:00,
2013-02-07 08:54:00,44.1,35.0,29.97,ESE,117,0.0,2.0,71,0.00,,,0.00,weatherlink.com 1.10,2013-02-07 14:54:00,
2013-02-07 09:09:00,46.5,36.0,29.96,ESE,117,1.0,2.0,67,0.00,,,0.00,weatherlink.com 1.10,2013-02-07 15:09:00,
2013-02-07 09:24:00,48.6,37.0,29.96,SE,125,2.0,5.0,65,0.00,,,0.00,weatherlink.com 1.10,2013-02-07 15:24:00,
2013-02-07 09:39:00,53.0,37.0,29.95,SE,133,9.0,11.0,56,0.00,,,0.00,weatherlink.com 1.10,2013-02-07 15:39:00,
2013-02-07 09:55:00,54.7,38.0,29.95,SSE,154,6.0,13.0,54,0.00,,,0.00,weatherlink.com 1.10,2013-02-07 15:55:00,
2013-02-07 10:09:00,56.1,39.0,29.95,South,170,5.0,10.0,53,0.00,,,0.00,weatherlink.com 1.10,2013-02-07 16:09:00,
2013-02-07 10:24:00,57.0,39.0,29.95,SSE,159,5.0,11.0,52,0.00,,,0.00,weatherlink.com 1.10,2013-02-07 16:24:00,
2013-02-07 10:39:00,57.6,40.0,29.94,SW,224,6.0,11.0,53,0.00,,,0.00,weatherlink.com 1.10,2013-02-07 16:39:00,
2013-02-07 10:54:00,58.7,41.0,29.94,WSW,239,6.0,12.0,53,0.00,,,0.00,weatherlink.com 1.10,2013-02-07 16:54:00,
2013-02-07 11:09:00,60.3,43.0,29.92,SSE,164,1.0,8.0,53,0.00,,,0.00,weatherlink.com 1.10,2013-02-07 17:09:00,
2013-02-07 11:25:00,60.7,44.0,29.92,South,184,3.0,8.0,54,0.00,,,0.00,weatherlink.com 1.10,2013-02-07 17:25:00,
2013-02-07 11:40:00,61.7,46.0,29.91,SSW,213,8.0,12.0,57,0.00,,,0.00,weatherlink.com 1.10,2013-02-07 17:40:00,
2013-02-07 11:55:00,63.2,48.0,29.90,South,185,4.0,8.0,58,0.00,,,0.00,weatherlink.com 1.10,2013-02-07 17:55:00,
2013-02-07 12:10:00,63.2,48.0,29.89,SSE,157,6.0,15.0,59,0.00,,,0.00,weatherlink.com 1.10,2013-02-07 18:10:00,
2013-02-07 12:25:00,63.2,48.0,29.88,SW,230,3.0,10.0,59,0.00,,,0.00,weatherlink.com 1.10,2013-02-07 18:25:00,
2013-02-07 12:40:00,64.6,49.0,29.87,SSE,149,10.0,10.0,57,0.00,,,0.00,weatherlink.com 1.10,2013-02-07 18:40:00,
2013-02-07 12:55:00,63.6,48.0,29.87,SSE,149,4.0,11.0,58,0.00,,,0.00,weatherlink.com 1.10,2013-02-07 18:55:00,
2013-02-07 13:10:00,64.8,49.0,29.87,SE,141,1.0,12.0,56,0.00,,,0.00,weatherlink.com 1.10,2013-02-07 19:10:00,
2013-02-07 13:25:00,64.5,49.0,29.86,SSE,164,7.0,10.0,57,0.00,,,0.00,weatherlink.com 1.10,2013-02-07 19:25:00,
2013-02-07 13:40:00,64.3,49.0,29.86,SE,138,8.0,10.0,58,0.00,,,0.00,weatherlink.com 1.10,2013-02-07 19:40:00,
2013-02-07 13:55:00,64.1,49.0,29.85,SSE,165,3.0,13.0,59,0.00,,,0.00,weatherlink.com 1.10,2013-02-07 19:55:00,
2013-02-07 14:10:00,64.1,50.0,29.84,SSE,166,5.0,10.0,60,0.00,,,0.00,weatherlink.com 1.10,2013-02-07 20:10:00,
2013-02-07 14:25:00,64.3,50.0,29.84,SSE,150,4.0,11.0,60,0.00,,,0.00,weatherlink.com 1.10,2013-02-07 20:25:00,
2013-02-07 14:40:00,64.4,50.0,29.83,SSW,192,5.0,12.0,61,0.00,,,0.00,weatherlink.com 1.10,2013-02-07 20:40:00,
2013-02-07 14:55:00,64.3,51.0,29.83,SE,146,5.0,10.0,62,0.00,,,0.00,weatherlink.com 1.10,2013-02-07 20:55:00,
2013-02-07 15:10:00,63.9,51.0,29.82,South,187,6.0,10.0,63,0.00,,,0.00,weatherlink.com 1.10,2013-02-07 21:10:00,
2013-02-07 15:25:00,63.4,51.0,29.82,South,177,2.0,12.0,65,0.00,,,0.00,weatherlink.com 1.10,2013-02-07 21:25:00,
2013-02-07 15:40:00,63.2,52.0,29.82,South,184,4.0,10.0,66,0.00,,,0.00,weatherlink.com 1.10,2013-02-07 21:40:00,
2013-02-07 15:55:00,63.3,52.0,29.82,South,177,4.0,8.0,66,0.00,,,0.00,weatherlink.com 1.10,2013-02-07 21:55:00,
2013-02-07 16:10:00,63.7,52.0,29.82,South,187,3.0,8.0,66,0.00,,,0.00,weatherlink.com 1.10,2013-02-07 22:10:00,
2013-02-07 16:25:00,63.1,51.0,29.82,SW,228,0.0,7.0,66,0.00,,,0.00,weatherlink.com 1.10,2013-02-07 22:25:00,
2013-02-07 16:40:00,62.6,52.0,29.81,SSE,148,5.0,9.0,68,0.00,,,0.00,weatherlink.com 1.10,2013-02-07 22:40:00,
2013-02-07 16:55:00,62.2,52.0,29.81,SSE,149,1.0,9.0,70,0.00,,,0.00,weatherlink.com 1.10,2013-02-07 22:55:00,
2013-02-07 17:10:00,61.6,52.0,29.80,SSE,156,5.0,10.0,72,0.00,,,0.00,weatherlink.com 1.10,2013-02-07 23:10:00,
2013-02-07 17:26:00,61.3,52.0,29.82,South,173,2.0,4.0,72,0.00,,,0.00,weatherlink.com 1.10,2013-02-07 23:26:00,
2013-02-07 17:40:00,60.6,52.0,29.82,South,177,1.0,7.0,74,0.00,,,0.00,weatherlink.com 1.10,2013-02-07 23:40:00,
2013-02-07 17:55:00,59.9,52.0,29.84,SW,226,5.0,8.0,76,0.00,,,0.00,weatherlink.com 1.10,2013-02-07 23:55:00,
2013-02-07 18:10:00,57.8,53.0,29.85,WSW,239,3.0,9.0,85,0.02,,,0.02,weatherlink.com 1.10,2013-02-08 00:10:00,
2013-02-07 18:25:00,56.6,54.0,29.85,WSW,244,1.0,6.0,89,0.03,,,0.03,weatherlink.com 1.10,2013-02-08 00:25:00,
2013-02-07 18:40:00,56.0,54.0,29.85,WSW,237,3.0,5.0,91,0.06,,,0.06,weatherlink.com 1.10,2013-02-08 00:40:00,
2013-02-07 18:55:00,55.5,53.0,29.86,WSW,254,0.0,4.0,92,0.07,,,0.07,weatherlink.com 1.10,2013-02-08 00:55:00,
2013-02-07 19:10:00,55.1,53.0,29.86,WSW,255,1.0,4.0,93,0.07,,,0.09,weatherlink.com 1.10,2013-02-08 01:10:00,
2013-02-07 19:25:00,54.9,53.0,29.86,West,263,1.0,4.0,94,0.07,,,0.10,weatherlink.com 1.10,2013-02-08 01:25:00,
2013-02-07 19:40:00,54.5,53.0,29.86,NNW,341,0.0,6.0,94,0.05,,,0.11,weatherlink.com 1.10,2013-02-08 01:40:00,
2013-02-07 19:55:00,53.8,52.0,29.86,North,354,4.0,6.0,95,0.05,,,0.12,weatherlink.com 1.10,2013-02-08 01:55:00,
2013-02-07 20:10:00,52.1,50.0,29.87,North,8,8.0,18.0,93,0.08,,,0.17,weatherlink.com 1.10,2013-02-08 02:10:00,
2013-02-07 20:26:00,51.0,49.0,29.88,NW,307,10.0,19.0,93,0.08,,,0.18,weatherlink.com 1.10,2013-02-08 02:26:00,
2013-02-07 20:41:00,50.6,49.0,29.88,NNW,334,4.0,15.0,93,0.07,,,0.18,weatherlink.com 1.10,2013-02-08 02:41:00,
2013-02-07 20:55:00,50.3,48.0,29.88,NW,305,4.0,10.0,93,0.06,,,0.18,weatherlink.com 1.10,2013-02-08 02:55:00,
2013-02-07 21:10:00,49.9,48.0,29.89,NW,313,7.0,9.0,94,0.02,,,0.19,weatherlink.com 1.10,2013-02-08 03:10:00,
2013-02-07 21:25:00,49.6,48.0,29.89,NW,314,6.0,9.0,94,0.03,,,0.21,weatherlink.com 1.10,2013-02-08 03:25:00,
2013-02-07 21:40:00,49.3,47.0,29.89,WNW,294,9.0,13.0,93,0.04,,,0.22,weatherlink.com 1.10,2013-02-08 03:40:00,
2013-02-07 21:56:00,49.0,47.0,29.90,NW,324,4.0,14.0,93,0.03,,,0.22,weatherlink.com 1.10,2013-02-08 03:56:00,
2013-02-07 22:11:00,48.7,47.0,29.91,NW,319,10.0,16.0,93,0.03,,,0.22,weatherlink.com 1.10,2013-02-08 04:11:00,
2013-02-07 22:26:00,48.2,46.0,29.91,NW,312,9.0,19.0,91,0.01,,,0.22,weatherlink.com 1.10,2013-02-08 04:26:00,
2013-02-07 22:41:00,47.4,45.0,29.92,NNW,339,11.0,16.0,91,0.00,,,0.22,weatherlink.com 1.10,2013-02-08 04:41:00,
2013-02-07 22:55:00,46.7,44.0,29.92,NW,305,8.0,18.0,91,0.00,,,0.22,weatherlink.com 1.10,2013-02-08 04:55:00,
2013-02-07 23:10:00,46.1,43.0,29.93,NW,309,10.0,23.0,90,0.00,,,0.22,weatherlink.com 1.10,2013-02-08 05:10:00,
2013-02-07 23:25:00,45.4,43.0,29.94,WNW,299,6.0,18.0,91,0.00,,,0.22,weatherlink.com 1.10,2013-02-08 05:25:00,
2013-02-07 23:41:00,45.1,43.0,29.95,NW,320,9.0,18.0,91,0.00,,,0.22,weatherlink.com 1.10,2013-02-08 05:41:00,
2013-02-07 23:55:00,44.8,42.0,29.96,NW,308,7.0,15.0,91,0.00,,,0.22,weatherlink.com 1.10,2013-02-08 05:55:00,